Location: Altoona
(40.5167°N, 78.4000°W)
Time: 18:20:43
(UTC-04:00)

NOSS 2-3 (E) - Pass Details

Date: 21 August 2017
Orbit: 648 x 1564 km, 63.4° (Epoch: 18 September)

Event Time Altitude Azimuth Distance (km) Brightness Sun altitude
Rises 20:42:20 0° 202° (SSW) 2,951 7.0 -8.0°
Reaches altitude 10° 20:44:33 10° 199° (SSW) 2,068 6.2 -8.4°
Maximum altitude 20:49:04 60° 119° (ESE) 807 3.8 -9.2°
Drops below altitude 10° 20:54:17 10° 41° (NE) 2,379 6.4 -10.1°
Sets 20:56:58 0° 38° (NE) 3,440 7.2 -10.6°
